Regional Weather Roundup
Issued by NWS

Home | Current Version | Previous Version | Graphics & Text | Print | Product List | Glossary On
Versions: 1 2 3 4 5 6 7 8 9 10 11 12 13 14 15 16 17 18 19 20 21 22 23 24 25 26 27 28 29 30 31 32 33 34 35 36 37 38 39 40 41 42 43 44 45 46 47 48 49 50
000
ASUS43 KLOT 010710
RWRIL

ILLINOIS REGIONAL WEATHER ROUNDUP
NATIONAL WEATHER SERVICE CHICAGO/ROMEOVILLE IL
100 AM CST SUN MAR 01 2015

NOTE: "FAIR" INDICATES FEW OR NO CLOUDS BELOW 12,000 FEET WITH NO
SIGNIFICANT WEATHER AND/OR OBSTRUCTIONS TO VISIBILITY.

* THESE STATIONS ARE NOT UNDER NWS QUALITY CONTROL. THEY ALSO MAY NOT
  REPORT WEATHER SUCH AS PRECIPITATION OR FOG.

ILZ001-002-007-009-015-016-024-010800-
NORTHWEST ILLINOIS

CITY           SKY/WX    TMP DP  RH WIND       PRES   REMARKS
MOLINE         MOCLDY     4   0  83 CALM      30.42F FOG
STERLING*      PTCLDY     9   7  92 SE3       30.42S
SAVANNA*       CLOUDY    11   8  86 CALM      30.43F
$$

ILZ003-004-008-010-011-017-018-010800-
NORTH CENTRAL ILLINOIS

CITY           SKY/WX    TMP DP  RH WIND       PRES   REMARKS
ROCKFORD       PTCLDY    10   6  84 CALM      30.43F FOG
FREEPORT*      FOG        6   3  86 CALM      30.43F VSB<1/4
ROCHELLE*      LGT SNOW   8   7  94 S3        30.42F
DE KALB*       CLEAR     13  10  90 SE5       30.41S FOG     WCI   5
PERU*          MOCLDY    19  17  89 SE5       30.42F WCI  13
$$

ILZ005-006-012>014-019>023-010800-
NORTHEAST ILLINOIS

CITY           SKY/WX    TMP DP  RH WIND       PRES   REMARKS
CHICAGO-OHARE  LGT SNOW  18  14  84 S7        30.42F FOG     WCI   9
CHICAGO-MIDWAY FLURRIES  20  15  81 S7        30.43F WCI  11
AURORA         MOCLDY    18  13  80 SE7       30.42F HAZE    WCI   9
LANSING*       FLURRIES  19  16  87 SE5       30.45F WCI  12
JOLIET*        CLOUDY    18  16  89 SE3       30.43F FOG
WAUKEGAN       CLOUDY    15  12  88 S3        30.42F
DUPAGE AIRPORT CLOUDY    17  13  84 S6        30.41F WCI   9
KANKAKEE*      FLURRIES  19  17  91 E5        30.44F WCI  12
WHEELING       CLOUDY    17  13  84 S5        30.44F FOG     WCI  10
MORRIS*        FLURRIES  19  17  94 SE5       30.43F WCI  12
ROMEOVILLE*    FLURRIES  19  15  88 S6        30.43F WCI  10
NORTHERLY ISL    N/A     20  15  81 S5          N/A  WCI  14
$$

LMZ740>746-010800-
SOUTHERN LAKE MICHIGAN

STATION/POSITION SKY/WX   TEMP    WIND        PRES    VSBY  WAVE
                          AIR SEA DIR/SP/G                  HT/PER
                          (F)     (DEG/KT/KT) (MB)    (MI)  (FT/S)
WAUKEGAN HARBOR            19     190/  8/ 21   N/A
HARRISON CRIB              20     170/ 12/ 15   N/A
BURNHAM HARBOR             20     180/  3/  5   N/A
CALUMET HARBOR             19     150/  5/  7 1029.5F
MICHIGAN CITY              18     130/  5/  7   N/A
$$

ILZ025>027-034>036-040-047-049-050-058-095>099-010800-
WEST-CENTRAL ILLINOIS

CITY           SKY/WX    TMP DP  RH WIND       PRES   REMARKS
QUINCY         LGT SNOW  21  18  88 SE3       30.39S VSB 3/4
GALESBURG*     CLOUDY    19  17  93 CALM      30.40F
MACOMB*        CLOUDY    20  19  96 CALM      30.43S
JACKSONVILLE*  LGT SNOW  24  21  89 E5        30.40F WCI  18
PITTSFIELD*    LGT SNOW  23  21  92 CALM      30.40F
$$

ILZ028>032-037-038-041>044-048-051>054-059>061-010800-
CENTRAL ILLINOIS

CITY           SKY/WX    TMP DP  RH WIND       PRES   REMARKS
PONTIAC        FLURRIES  19  18  94 E5        30.43F WCI  13
BLOOMINGTON    LGT SNOW  20  19  96 S5        30.41F FOG     WCI  14
DECATUR        SNOW      22  20  92 E5        30.41F VSB 1/2 WCI  16
PEORIA         CLOUDY    22  17  81 SE6       30.41F WCI  14
LACON*         CLOUDY    18  15  88 CALM      30.43S
LINCOLN*       LGT SNOW  23  21  92 CALM      30.44S
SPRINGFIELD    LGT SNOW  23  20  88 E3        30.41F FOG
TAYLORVILLE    LGT SNOW  23  21  93 CALM      30.42S
$$

ILZ033-039-045-046-055>057-062-063-010800-
EAST-CENTRAL ILLINOIS

CITY           SKY/WX    TMP DP  RH WIND       PRES   REMARKS
CHAMPAIGN      LGT SNOW  21  19  92 E6        30.40F VSB 3/4 WCI  13
DANVILLE*      LGT SNOW  21  19  93 E3        30.39F
RANTOUL*       LGT SNOW  23  21  92 E5        30.41F VSB 1   WCI  16
MATTOON        LGT SNOW  24  21  88 SE3       30.39F VSB 1
PARIS*         LGT SNOW  23  22  96 CALM      30.42F
$$

ILZ079-100>102-010800-
SOUTHWEST ILLINOIS

CITY           SKY/WX    TMP DP  RH WIND       PRES   REMARKS
ALTON          LGT SNOW  24  23  96 E3        30.40F
BELLEVILLE     LGT SNOW  25  25  99 NE2       30.39F FOG
CAHOKIA*       LGT SNOW  26  24  92 N3        30.40F FOG
SPARTA*        LGT SNOW  27  26  96 CALM      30.39F
$$

ILZ064>066-069>071-074>076-080>082-084>086-088>090-092>094-010800-
SOUTH-CENTRAL ILLINOIS

CITY           SKY/WX    TMP DP  RH WIND       PRES   REMARKS
CARBONDALE     CLOUDY    31  23  72 SE3       30.41F
CAIRO*         FLURRIES  34  24  65 N5        30.41R WCI  30
EFFINGHAM*     LGT SNOW  25  22  88 CALM      30.43S VSB 3/4
MARION         CLOUDY    32  21  64 CALM      30.42S
MT. VERNON     CLOUDY    28  25  86 S3        30.40F
CENTRALIA*     LGT SNOW  26  24  92 CALM      30.39F
SALEM*         LGT SNOW  28  25  91 CALM      30.40F VSB 1
METROPOLIS*    CLOUDY    33  23  66 CALM      30.39F
$$

ILZ067-068-072-073-078-083-087-091-010800-
SOUTHEAST ILLINOIS

CITY           SKY/WX    TMP DP  RH WIND       PRES   REMARKS
LAWRENCEVILLE  LGT SNOW  28  26  92 SE6       30.40F FOG     WCI  22
FLORA*         LGT SNOW  26  25  97 CALM      30.41F VSB 1
FAIRFIELD*     LGT SNOW  29  28  95 CALM      30.39F
HARRISBURG*    CLOUDY    32  23  70 CALM      30.43S
ROBINSON*      LGT SNOW  26  26  98 E3        30.43F
CARMI*         CLOUDY    33  28  84 E3        30.41S
$$

ABBREVIATIONS USED IN REMARKS
   TC - TEMPERATURE IN CELSIUS
  WCI - WIND CHILL INDEX
   HX - HEAT INDEX
  VSB - VISIBILITY
$$



USA.gov is the U.S. government's official web portal to all federal, state and local government web resources and services.